Location: Владивосток
(43.1151°N, 131.8856°E)
Time: 04:42:30
(UTC+10:00)

Gurwin Techsat 1B - Visible Passes

Search period start: 23 April 2024 00:00
Search period end: 03 May 2024 00:00
Orbit: 811 x 812 km, 98.9° (Epoch: 21 April)

Date Brightness Start Highest point End Pass type
(mag) Time Alt. Az. Time Alt. Az. Time Alt. Az.
23 Apr 10.1 04:05:29 10° NNE 04:10:17 33° E 04:15:03 10° SSE visible
23 Apr 9.4 05:45:23 10° N 05:50:07 34° WNW 05:54:50 10° SW visible
24 Apr 10.8 03:42:56 10° NE 03:46:54 21° E 03:50:49 10° SE visible
24 Apr 8.9 05:21:54 10° N 05:27:04 53° WNW 05:32:12 10° SW visible
25 Apr 11.2 03:21:09 10° ENE 03:23:24 13° E 03:25:39 10° ESE visible
25 Apr 8.6 04:58:35 10° NNE 05:03:56 84° WNW 05:09:15 10° SSW visible
26 Apr 9.1 04:35:26 10° NNE 04:40:43 62° ESE 04:45:58 10° S visible
27 Apr 9.9 04:12:28 10° NNE 04:17:25 38° E 04:22:21 10° SSE visible
28 Apr 10.6 03:49:48 10° NE 03:54:03 24° E 03:58:17 10° SSE visible
28 Apr 9.0 05:29:04 10° N 05:34:08 46° WNW 05:39:10 10° SW visible
29 Apr 11.1 03:27:40 10° ENE 03:30:35 15° E 03:33:29 10° ESE visible
29 Apr 8.6 05:05:42 10° N 05:11:01 74° WNW 05:16:18 10° SSW visible
30 Apr 8.9 04:42:29 10° NNE 04:47:49 71° ESE 04:53:06 10° S visible
01 May 9.6 04:19:28 10° NNE 04:24:33 44° E 04:29:35 10° S visible
02 May 10.4 03:56:41 10° NE 04:01:11 27° E 04:05:39 10° SSE visible
